Flag for Poland Past Weather in Lidzbark Warmiński, Poland — Yesterday and Last 2 Weeks

Now
76 °F

Mild.


Feels Like: 78 °F
Forecast: 58 / 82 °F
Wind: 1 mph from Northwest

Location: Ketrzyn

Current Time: Jul 26, 2016 at 10:36:56 AM

Latest Report: Jul 26, 2016 at 9:00 AM


Visibility: 13 mi

Pressure: 30.03 "Hg

Humidity: 73%

Dew Point: 67 °F

Location of Lidzbark WarmińskiLocation

Past Weather in Lidzbark Warmiński — Graph

°F

Lidzbark Warmiński Temperature Yesterday

Maximum temperature yesterday: 82 °F (at 4:00 PM)
Minimum temperature yesterday: 61 °F (at 5:00 AM)
Average temperature yesterday: 72 °F

High & Low Weather Summary for the Past Weeks

 TemperatureHumidityPressure
High83 °F (Jul 11, 2:00 PM)99% (Jul 20, 6:00 AM)30.17 "Hg (Jul 20, 6:00 AM)
Low52 °F (Jul 19, 12:00 AM)44% (Jul 19, 4:00 PM)29.53 "Hg (Jul 15, 1:00 AM)
Average65 °F81%29.97 "Hg
* Reported Jul 11 9:00 AM — Jul 26 9:00 AM, Lidzbark Warmiński, Weather by CustomWeather, © 2016

Note: Actual official high and low records may vary slightly from our data, if they occured in-between our weather recording intervals... More about our weather records

Advertising

Lidzbark Warmiński Weather History for the Previous 24 Hours

Scroll right to see more
 ConditionsComfort  
Time TempWeatherWind HumidityBarometerVisibility
9:00 AM
Tue, Jul 26
76 °FMild.1 mph73%30.03 "Hg12 mi
8:00 AM72 °FMild.2 mph83%30.03 "Hg9 mi
7:00 AM68 °FFog.1 mph93%30.03 "Hg5 mi
6:00 AM65 °FFog.1 mph96%30.03 "Hg6 mi
5:00 AM63 °FFog.1 mph97%30.03 "Hg3 mi
4:00 AM62 °FFog.1 mph96%30.03 "Hg3 mi
3:00 AM64 °FFog.No wind95%30.03 "Hg5 mi
2:00 AM64 °FFog.1 mph97%30.03 "Hg5 mi
1:00 AM64 °FFog.2 mph95%30.03 "Hg6 mi
12:00 AM64 °FFog.1 mph95%30.03 "Hg3 mi
11:00 PM
Mon, Jul 25
66 °FFog.1 mph90%30.03 "Hg5 mi
10:00 PM69 °FMild.2 mph80%30.03 "Hg8 mi
9:00 PM73 °FMild.No wind72%30.03 "Hg7 mi
8:00 PM76 °FMild.No wind64%30.02 "Hg18 mi
7:00 PM78 °FWarm.1 mph59%30.02 "Hg7 mi
6:00 PM77 °FWarm.6 mph69%30.01 "Hg16 mi
5:00 PM80 °FWarm.8 mph61%30.01 "Hg12 mi
4:00 PM82 °FWarm.2 mph51%30.01 "Hg14 mi
3:00 PM82 °FWarm.2 mph45%30.02 "Hg13 mi
2:00 PM82 °FWarm.1 mph47%30.03 "Hg14 mi
1:00 PM80 °FWarm.2 mph51%30.04 "Hg16 mi
12:00 PM80 °FWarm.1 mph53%30.05 "Hg13 mi
11:00 AM79 °FWarm.1 mph54%30.07 "Hg16 mi
10:00 AM77 °FWarm.1 mph65%30.07 "Hg14 mi
Weather by CustomWeather, © 2016

See weather overviewHow to use our weather pages